| time (UTC) | temp F | wind direction | speed MPH | gust MPH | rain 1hr in | rain 24hr in | rain mn in | humidity % | barometer mb |
| 20260505074348 | 67 | 293 | 1.0 | 7.0 | 0.00 | 0.39 | 0.00 | 58 | 1020.4 |
| 20260505073403 | 67 | 319 | 0.0 | 4.0 | 0.00 | 0.39 | 0.00 | 60 | 1020.3 |
| 20260505072348 | 68 | 198 | 1.0 | 6.0 | 0.00 | 0.39 | 0.00 | 59 | 1020.1 |
| 20260505071337 | 67 | 298 | 1.0 | 7.0 | 0.00 | 0.39 | 0.00 | 55 | 1020.0 |
| 20260505070334 | 67 | 312 | 3.0 | 9.0 | 0.00 | 1.57 | 0.00 | 56 | 1020.0 |
| 20260505065341 | 66 | 303 | 3.0 | 9.0 | 0.00 | 1.57 | 0.00 | 55 | 1020.0 |
| 20260505064339 | 67 | 304 | 4.0 | 10.0 | 0.00 | 1.57 | 0.00 | 55 | 1019.9 |
| 20260505063352 | 67 | 342 | 1.0 | 5.0 | 0.00 | 1.57 | 0.00 | 57 | 1019.9 |
| 20260505062328 | 68 | 329 | 2.0 | 6.0 | 0.00 | 1.57 | 0.00 | 54 | 1020.0 |
| 20260505061325 | 68 | 279 | 1.0 | 4.0 | 0.00 | 1.57 | 0.00 | 53 | 1019.9 |
| 20260505060327 | 67 | 297 | 1.0 | 11.0 | 0.00 | 1.57 | 0.00 | 55 | 1019.8 |
| 20260505055322 | 68 | 277 | 3.0 | 7.0 | 0.00 | 1.57 | 0.00 | 54 | 1019.8 |
| 20260505054352 | 67 | 286 | 1.0 | 9.0 | 0.00 | 1.57 | 0.00 | 52 | 1019.7 |
| 20260505053331 | 68 | 276 | 1.0 | 8.0 | 0.00 | 1.57 | 0.00 | 52 | 1019.8 |
| 20260505052327 | 68 | 320 | 0.0 | 6.0 | 0.00 | 1.57 | 0.00 | 51 | 1019.8 |
| 20260505051347 | 68 | 293 | 1.0 | 4.0 | 0.00 | 1.57 | 0.00 | 50 | 1019.9 |
| 20260505050333 | 67 | 272 | 5.0 | 9.0 | 0.00 | 1.57 | 0.00 | 49 | 1019.9 |
| 20260505041353 | 67 | 349 | 1.0 | 7.0 | 0.00 | 1.57 | 0.00 | 48 | 1019.8 |
| 20260505040341 | 67 | 317 | 1.0 | 9.0 | 0.00 | 1.57 | 0.00 | 52 | 1020.2 |
| 20260505035400 | 67 | 350 | 2.0 | 6.0 | 0.00 | 1.57 | 0.00 | 53 | 1020.2 |
| 20260505034348 | 66 | 143 | 3.0 | 7.0 | 0.00 | 1.57 | 0.00 | 50 | 1020.0 |
| 20260505033346 | 66 | 284 | 2.0 | 9.0 | 0.00 | 1.57 | 0.00 | 51 | 1020.1 |
| 20260505032347 | 67 | 306 | 2.0 | 9.0 | 0.00 | 1.57 | 0.00 | 53 | 1020.0 |
| 20260505031323 | 67 | 1 | 2.0 | 7.0 | 0.00 | 1.57 | 0.00 | 48 | 1020.2 |
| 20260505030328 | 67 | 331 | 3.0 | 8.0 | 0.00 | 1.57 | 0.00 | 49 | 1020.2 |
| 20260505025351 | 67 | 283 | 1.0 | 5.0 | 0.00 | 1.57 | 0.00 | 51 | 1020.0 |
| 20260505024337 | 66 | 221 | 3.0 | 10.0 | 0.00 | 1.57 | 0.00 | 51 | 1020.2 |
| 20260505023354 | 66 | 214 | 2.0 | 8.0 | 0.00 | 1.57 | 0.00 | 52 | 1020.3 |
| 20260505022329 | 67 | 295 | 2.0 | 5.0 | 0.00 | 1.57 | 0.00 | 49 | 1020.1 |
| 20260505021331 | 67 | 288 | 1.0 | 6.0 | 0.00 | 1.57 | 0.00 | 52 | 1020.2 |
| 20260505020325 | 66 | 286 | 2.0 | 7.0 | 0.00 | 1.61 | 0.00 | 48 | 1020.1 |
| 20260505015349 | 66 | 126 | 0.0 | 5.0 | 0.00 | 1.61 | 0.00 | 51 | 1020.2 |
| 20260505014344 | 66 | 284 | 1.0 | 5.0 | 0.00 | 1.61 | 0.00 | 55 | 1020.3 |
| 20260505013337 | 64 | 331 | 2.0 | 9.0 | 0.00 | 1.61 | 0.00 | 56 | 1020.1 |
| 20260505012341 | 64 | 272 | 2.0 | 7.0 | 0.00 | 1.61 | 0.00 | 51 | 1020.1 |
| 20260505011332 | 65 | 286 | 2.0 | 5.0 | 0.00 | 1.61 | 0.00 | 56 | 1019.8 |
| 20260505010327 | 64 | 308 | 2.0 | 4.0 | 0.00 | 2.17 | 0.00 | 50 | 1019.9 |
| 20260505005350 | 65 | 273 | 2.0 | 7.0 | 0.00 | 2.17 | 0.00 | 55 | 1019.8 |
| 20260505004346 | 65 | 321 | 1.0 | 3.0 | 0.00 | 2.17 | 0.00 | 54 | 1019.8 |
| 20260505003336 | 65 | 268 | 1.0 | 6.0 | 0.00 | 2.17 | 0.00 | 56 | 1019.6 |
| 20260505002338 | 66 | 313 | 1.0 | 5.0 | 0.00 | 2.17 | 0.00 | 51 | 1019.7 |
| 20260505001333 | 66 | 302 | 1.0 | 3.0 | 0.00 | 2.17 | 0.00 | 49 | 1019.6 |
| 20260505000327 | 65 | 289 | 2.0 | 6.0 | 0.00 | 2.32 | 0.00 | 49 | 1019.4 |
| 20260504235332 | 65 | 304 | 0.0 | 4.0 | 0.00 | 2.32 | 0.00 | 59 | 1019.3 |
| 20260504234330 | 64 | 291 | 0.0 | 6.0 | 0.00 | 2.32 | 0.00 | 56 | 1019.4 |
| 20260504233333 | 63 | 258 | 0.0 | 3.0 | 0.00 | 2.32 | 0.00 | 57 | 1019.4 |
| 20260504232329 | 63 | 251 | 1.0 | 4.0 | 0.00 | 2.32 | 0.00 | 59 | 1019.1 |
| 20260504231413 | 62 | 241 | 0.0 | 5.0 | 0.00 | 2.32 | 0.00 | 53 | 1019.1 |
| 20260504230326 | 61 | 295 | 1.0 | 6.0 | 0.00 | 2.48 | 0.00 | 54 | 1019.0 |
| 20260504225349 | 61 | 344 | 1.0 | 4.0 | 0.00 | 2.48 | 0.00 | 54 | 1019.0 |
| 20260504224342 | 60 | 251 | 0.0 | 3.0 | 0.00 | 2.48 | 0.00 | 60 | 1018.8 |
| 20260504223338 | 60 | 298 | 0.0 | 4.0 | 0.00 | 2.48 | 0.00 | 65 | 1018.7 |
| 20260504222338 | 58 | 298 | 0.0 | 2.0 | 0.00 | 2.48 | 0.00 | 62 | 1018.7 |
| 20260504221338 | 56 | 251 | 0.0 | 1.0 | 0.00 | 2.48 | 0.00 | 67 | 1018.5 |
| 20260504220342 | 55 | 283 | 0.0 | 4.0 | 0.00 | 3.11 | 0.00 | 67 | 1018.6 |
| 20260504215338 | 53 | 251 | 0.0 | 2.0 | 0.00 | 3.11 | 0.00 | 69 | 1018.4 |
| 20260504214413 | 52 | 268 | 0.0 | 3.0 | 0.00 | 3.11 | 0.00 | 73 | 1018.1 |
| 20260504213323 | 49 | 291 | 0.0 | 1.0 | 0.00 | 3.11 | 0.00 | 83 | 1018.0 |
| 20260504212334 | 48 | 291 | 0.0 | 1.0 | 0.00 | 3.11 | 0.00 | 88 | 1018.1 |
| 20260504211334 | 47 | 291 | 0.0 | 1.0 | 0.00 | 3.11 | 0.00 | 90 | 1018.0 |
| 20260504210343 | 46 | 291 | 0.0 | 1.0 | 0.00 | 3.19 | 0.00 | 91 | 1017.8 |
| 20260504205323 | 45 | 291 | 0.0 | 1.0 | 0.00 | 3.19 | 0.00 | 92 | 1017.7 |
| 20260504204337 | 45 | 291 | 0.0 | 0.0 | 0.00 | 3.19 | 0.00 | 93 | 1017.5 |
| 20260504203339 | 45 | 291 | 0.0 | 1.0 | 0.00 | 3.19 | 0.00 | 92 | 1017.3 |
| 20260504202350 | 44 | 291 | 0.0 | 1.0 | 0.00 | 3.19 | 0.00 | 92 | 1017.2 |
| 20260504201330 | 44 | 291 | 0.0 | 1.0 | 0.00 | 3.19 | 0.00 | 92 | 1017.0 |
| 20260504200330 | 44 | 291 | 0.0 | 1.0 | 0.00 | 3.27 | 0.00 | 90 | 1016.7 |
| 20260504195347 | 44 | 291 | 0.0 | 1.0 | 0.00 | 3.27 | 0.00 | 91 | 1016.4 |
| 20260504194336 | 45 | 291 | 0.0 | 1.0 | 0.00 | 3.27 | 0.00 | 90 | 1016.1 |
| 20260504193333 | 45 | 291 | 0.0 | 1.0 | 0.00 | 3.27 | 0.00 | 90 | 1015.9 |
| 20260504192337 | 46 | 291 | 0.0 | 1.0 | 0.00 | 3.27 | 0.00 | 89 | 1015.8 |
| 20260504191402 | 46 | 291 | 0.0 | 1.0 | 0.00 | 3.27 | 0.00 | 87 | 1015.6 |
| 20260504190339 | 46 | 291 | 0.0 | 1.0 | 0.00 | 3.31 | 0.00 | 86 | 1015.4 |
| 20260504185349 | 47 | 317 | 0.0 | 1.0 | 0.00 | 3.31 | 0.00 | 84 | 1015.4 |
| 20260504184350 | 48 | 320 | 0.0 | 1.0 | 0.00 | 3.31 | 0.00 | 82 | 1015.3 |
| 20260504183330 | 49 | 320 | 0.0 | 1.0 | 0.00 | 3.31 | 0.00 | 78 | 1015.0 |
| 20260504182350 | 50 | 328 | 1.0 | 4.0 | 0.00 | 3.31 | 0.00 | 74 | 1014.8 |
| 20260504181330 | 50 | 302 | 0.0 | 2.0 | 0.00 | 3.31 | 0.00 | 74 | 1014.4 |
| 20260504180337 | 51 | 277 | 0.0 | 5.0 | 0.00 | 3.35 | 0.00 | 70 | 1013.9 |
| 20260504175352 | 51 | 307 | 3.0 | 8.0 | 0.00 | 3.35 | 0.00 | 67 | 1013.6 |
| 20260504174337 | 50 | 350 | 1.0 | 7.0 | 0.00 | 3.35 | 0.00 | 69 | 1013.6 |
| 20260504173331 | 50 | 284 | 1.0 | 6.0 | 0.00 | 3.35 | 0.00 | 72 | 1014.0 |
| 20260504172359 | 51 | 277 | 0.0 | 6.0 | 0.00 | 3.35 | 0.00 | 71 | 1014.1 |
| 20260504171335 | 50 | 129 | 1.0 | 3.0 | 0.00 | 3.35 | 0.00 | 74 | 1014.0 |
| 20260504170330 | 51 | 321 | 0.0 | 3.0 | 0.00 | 3.35 | 0.00 | 76 | 1013.7 |
| 20260504160335 | 51 | 275 | 0.0 | 7.0 | 0.00 | 3.35 | 0.00 | 77 | 1012.1 |
| 20260504150404 | 50 | 292 | 0.0 | 2.0 | 0.00 | 3.35 | 0.67 | 90 | 1009.3 |
| 20260504141327 | 49 | 20 | 1.0 | 2.0 | 0.00 | 3.35 | 0.67 | 97 | 1007.6 |
| 20260504140351 | 50 | 290 | 0.0 | 1.0 | 0.00 | 3.35 | 0.67 | 97 | 1007.7 |
| 20260504130328 | 52 | 291 | 0.0 | 2.0 | 0.00 | 3.35 | 0.67 | 93 | 1006.1 |
| 20260504110351 | 55 | 96 | 0.0 | 1.0 | 0.00 | 3.35 | 0.67 | 98 | 1002.6 |
| 20260504100339 | 56 | 301 | 0.0 | 1.0 | 0.12 | 3.35 | 0.67 | 98 | 1001.4 |
| 20260504081337 | 61 | 260 | 0.0 | 0.0 | 0.24 | 3.23 | 0.65 | 99 | 999.4 |
| 20260504080334 | 61 | 260 | 0.0 | 0.0 | 0.28 | 3.23 | 0.65 | 98 | 999.5 |